STARLINK-35904, 66627

Orbit data source: Space-Track

STARLINK-35904, 66627 is a payload satellite owned by SpaceX/Seattle (US) in LEO that was launched on Sun, 23 Nov 2025 UTC via an FALCON 9 launch vehicle from the Air Force Western Test Range (AFWTR). Payload-class satellites include a variety of spacecraft equipped with specific instruments for various scientific and technological missions. These include communications satellites like Starlink; space stations such as the ISS; scientific satellites like the Hubble; Earth observation satellites from companies like Planet Labs, Umbra, and HawkEye 360; GPS; miniature CubeSats for education and research; and military/defense satellites.

Loading next visibility...
Identifier
66627, 2025-271L
Orbit
LEO
Country
Flag of USUS
Related business
Manufacturer
SpaceX/Seattle
Mission
Operational Commercial Communications
Bus & Motor
STARLINK V2MO, Unknown motor
Mass
575 kg wet, ~530 kg dry
Launch date (UTC)
2025-11-23 (10 months ago)
Launch vehicle
FALCON 9
Launch site
Air Force Western Test Range (AFWTR)
Object type
Payload
Rocket body
Debris
Shape & HBR
Box + 1 Pan, 17.7 m
Radar Cross Section
41.120 m², Large (>1 m²)

Expand to show TLE details & history
Last TLE update: 14 hours ago

TLE from 14 hours ago
0 STARLINK-35904
1 66627U 25271L   26265.40211942  .00013791  00000-0  41879-3 0  9991
2 66627  53.1583 304.8527 0001160  83.8644 276.2491 15.34381166 47666
Epoch: 2026-09-22T09:39Z
TLE epoch observation values (Epoch: 2026-09-22T09:39:03.117Z)
Latitude
-0.00002°
Longitude
158.82159°
Altitude
463.574 km
Speed
7.636 km/s
True Right ascension
20h 19m 24s
True Declination
0° 00' 00"
Sunlit
Object was in full shadow at epoch
Visualization orbit readout
Latitude
Unknown
Longitude
Unknown
Altitude
Unknown
Speed
Unknown
Apparent Right ascension
Unknown
Apparent Declination
Unknown
Sunlit
N/A
Visualization observer readout
Local Sidereal Time
17:12:47
Azimuth
Unknown
Elevation
Unknown
Doppler factor
Unknown
Orbital elements
Apogee altitude
463.81 km
Perigee altitude
462.223 km
Semi-major axis
6,841.153 km
Eccentricity
0.00012
Inclination
53.1583°
RAAN
304.8527°
Arg. of periapsis
83.8644°
True anomaly
276.23589°
Mean anomaly
276.2491°
Eccentric anomaly
276.24249°
Mean motion
3.83574 °/min
Orbital period
93.85 mins
BSTAR
0.00041879
Loading maneuver chart data...
Computing Atmospheric mass density...
Loading historical data...
Loading historical data...
Loading historical data...
Loading historical data...
Loading historical data...
Loading historical data...
Loading historical data...

Documentation

Showing up to 5 results
|